Regional Weather Roundup
Issued by NWS

Home | Current Version | Previous Version | Text Only | Print | Product List | Glossary On
Versions: 1 2 3 4 5 6 7 8 9 10 11 12 13 14 15 16 17 18 19 20 21 22 23 24 25 26 27 28 29 30 31 32 33 34 35 36 37 38 39 40 41 42 43 44 45 46 47 48 49 50
477
ASUS44 KFWD 121901
RWRTX
NORTH TEXAS HOURLY WEATHER ROUNDUP
NATIONAL WEATHER SERVICE FORT WORTH TX
100 PM CST FRI FEB 12 2016

NOTE: "FAIR" INDICATES FEW OR NO CLOUDS BELOW 12,000 FEET WITH NO
SIGNIFICANT WEATHER AND/OR OBSTRUCTIONS TO VISIBILITY.

TXZ118-119-122000-
DALLAS/FORT WORTH METROPLEX

CITY           SKY/WX    TMP DP  RH WIND       PRES   REMARKS
DFW AIRPORT    SUNNY     65  36  34 N12       30.29F
DALLAS LOVE    SUNNY     67  33  28 NE12G21   30.29F
FTW MEACHAM    SUNNY     69  34  27 NE14      30.29F
DAL-EXECUTIVE  SUNNY     67  32  27 NE16      30.28F
FTW-ALLIANCE   SUNNY     67  36  31 NE9       30.29F
FTW-NAS-JRB    SUNNY     69  34  27 NE10      30.30F
FTW-SPINKS     SUNNY     66  36  32 NE9G16    30.30F
ARLINGTON      SUNNY     68  35  29 NE8       30.29F
ADDISON        SUNNY     66  36  32 NE12      30.29F
MESQUITE       SUNNY     63  37  39 N10       30.29F
LANCASTER      SUNNY     66  31  27 NE12      30.29F
$$

TXZ091>094-102>105-117-120-121-131>134-122000-
NORTH CENTRAL TEXAS

CITY           SKY/WX    TMP DP  RH WIND       PRES   REMARKS
SHRMAN/DENISON SUNNY     64  34  33 N8        30.32F
GAINESVILLE    SUNNY     64  35  34 NE10      30.31F
BRIDGEPORT     SUNNY     67  40  36 NE7       30.32F
DECATUR        SUNNY     66  33  28 NE8       30.30F
DENTON         SUNNY     65  36  34 NE15      30.30F
MCKINNEY       SUNNY     65  37  35 NE8       30.29F
ROCKWALL       SUNNY     65  38  36 NE7G16    30.28F
TERRELL        SUNNY     66  35  31 N16       30.28F
WAXAHACHIE     SUNNY     67  37  33 N13       30.29F
GRANBURY       SUNNY     70  33  25 NE8       30.30F
$$

TXZ083>090-098>101-113>116-127>130-139>142-154-155-122000-
WESTERN NORTH TEXAS

CITY           SKY/WX    TMP DP  RH WIND       PRES   REMARKS
WICHITA FALLS  SUNNY     64  36  35 N8        30.32F
WF-KICKAPOO    SUNNY     64  34  33 N8        30.33F
VERNON         SUNNY     63  32  32 E3        30.33F
ABILENE        SUNNY     67  38  34 N8        30.30F
ABILENE-DYESS  SUNNY     65  36  34 E8        30.29
MINERAL WELLS  SUNNY     70  34  26 NE8       30.28F
COMANCHE       SUNNY     71  36  26 NE8       30.28F
BROWNWOOD      SUNNY     72  32  23 NE8       30.27F
$$

TXZ143>147-156>162-174-175-122000-
CENTRAL TEXAS

CITY           SKY/WX    TMP DP  RH WIND       PRES   REMARKS
WACO           SUNNY     72  38  29 NE17      30.26F
WACO-TSTC      SUNNY     70  39  32 N8        30.26F
WACO-MCGREGOR  SUNNY     71  42  35 N14       30.26F
CORSICANA      SUNNY     69  43  38 NE9G20    30.27F
HEARNE         SUNNY     68  43  39 CALM      30.24F
TEMPLE         SUNNY     73  40  30 NE15      30.25F
KILLEEN        SUNNY     73  37  26 NE15      30.24F
KILLEEN-SKYLRK SUNNY     74  40  29 NE15      30.25F
FORT HOOD      SUNNY     73  36  25 NE15      30.23F
HAMILTON       SUNNY     72  37  28 NE6G16    30.28F
$$

TXZ095>097-106>112-122>126-135>138-148>153-164>167-122000-
EAST TEXAS

CITY           SKY/WX    TMP DP  RH WIND       PRES   REMARKS
PARIS          SUNNY     64  34  32 N12       30.29F
SULPHUR SPRNGS SUNNY     64  35  34 N8        30.31F
MINEOLA        SUNNY     66  36  32 NE6       30.29F
TYLER          SUNNY     69  35  28 NE13      30.26F
LONGVIEW       SUNNY     67  38  34 E7        30.25F
ATHENS         SUNNY     68  37  32 E10G17    30.25F
NACOGDOCHES    SUNNY     72  52  49 N6        30.23F
LUFKIN         SUNNY     74  50  42 N6        30.22F
$$

SUPPLEMENTAL OBSERVATIONS (CENTRAL)

CITY           SKY/WX    TMP DP  RH WIND       PRES   REMARKS
$$

SUPPLEMENTAL OBSERVATIONS (WEST)

CITY           SKY/WX    TMP DP  RH WIND       PRES   REMARKS
$$

SUPPLEMENTAL OBSERVATIONS (EAST)

CITY           SKY/WX    TMP DP  RH WIND       PRES   REMARKS
$$

SUPPLEMENTAL OBSERVATIONS ARE A COLLECTION OF AUTOMATED INSTRUMENTS
THAT ARE MAINTAINED BY A VARIETY OF FEDERAL AND STATE AGENCIES.
CERTAIN ELEMENTS...SUCH AS HUMIDITY VALUES AND SUSTAINED WIND
SPEEDS...MAY BE APPROXIMATED.





USA.gov is the U.S. government's official web portal to all federal, state and local government web resources and services.